Weather History for Crestview, FL

Change the Weather History Date:

Friday, August 30, 2013

  Actual Average Record
Temperature  
Mean Temperature 82 °F -  
Max Temperature 95 °F 90 °F 100 °F (2011)
Min Temperature 71 °F 69 °F 56 °F (1992)
Cooling Degree Days 17    
Growing Degree Days 32 (Base 50)    
Moisture  
Dew Point 71 °F    
Average Humidity 71    
Maximum Humidity 91    
Minimum Humidity 49    
Precipitation  
Precipitation 0.00 in - - ()
Sea Level Pressure  
Sea Level Pressure 29.97 in    
Wind  
Wind Speed 2 mph (NW)    
Max Wind Speed 9 mph    
Max Gust Speed -    
Visibility 7 miles    
Events      
Averages and records for this station are not official NWS values.
T = Trace of Precipitation, MM = Missing Value Source: NWS Daily Summary

Daily Weather History Graph

Daily Weather History Graph

Search for Another Location

Airport:

Trip Planner

Search our weather history database for the weather conditions in past years. The results will help you decide how hot, cold, wet, or windy it might be!

Date:

Astronomy

Aug. 30, 2013 Rise Set
Actual Time 6:21 AM CDT 7:11 PM CDT
Civil Twilight 5:56 AM CDT 7:35 PM CDT
Nautical Twilight 5:27 AM CDT 8:04 PM CDT
Astronomical Twilight 4:57 AM CDT 8:34 PM CDT
Moon 1:11 AM CDT (8/30) 3:14 PM CDT (8/30)
Length of Visible Light 13h 39m
Length of Day
12h 49m
Waning Crescent, 29% of the Moon is Illuminated
Aug 30
Waning Crescent
Sep 5
New
Sep 12
First Quarter
Sep 19
Full
Sep 26
Last Quarter

Hourly Weather History & Observations

Time (CDT) Temp. Heat Index Dew Point Humidity Pressure Visibility Wind Dir Wind Speed Gust Speed Precip Events Conditions
12:53 AM 73.9 °F - 71.1 °F 91% 29.99 in 6.0 mi Calm Calm - N/A   Clear
1:53 AM 73.0 °F - 70.0 °F 90% 29.99 in 7.0 mi Calm Calm - N/A   Clear
2:53 AM 72.0 °F - 69.1 °F 91% 29.99 in 6.0 mi Calm Calm - N/A   Clear
3:53 AM 72.0 °F - 69.1 °F 91% 29.99 in 6.0 mi Calm Calm - N/A   Clear
4:53 AM 72.0 °F - 69.1 °F 91% 29.99 in 6.0 mi Calm Calm - N/A   Clear
5:53 AM 71.1 °F - 68.0 °F 90% 29.99 in 6.0 mi Calm Calm - N/A   Scattered Clouds
6:53 AM 75.0 °F - 69.1 °F 82% 30.01 in 8.0 mi WNW 4.6 mph - N/A   Mostly Cloudy
7:53 AM 79.0 °F - 69.1 °F 72% 30.01 in 9.0 mi WNW 9.2 mph - N/A   Overcast
8:53 AM 82.9 °F 87.0 °F 70.0 °F 65% 30.03 in 9.0 mi NW 4.6 mph - N/A   Overcast
9:53 AM 86.0 °F 91.5 °F 71.1 °F 61% 30.03 in 8.0 mi NNW 5.8 mph - N/A   Partly Cloudy
10:53 AM 89.1 °F 95.0 °F 71.1 °F 55% 30.02 in 8.0 mi NW 6.9 mph - N/A   Clear
11:53 AM 90.0 °F 96.4 °F 71.1 °F 54% 30.01 in 8.0 mi West 5.8 mph - N/A   Clear
12:53 PM 93.0 °F 100.1 °F 71.1 °F 49% 29.99 in 8.0 mi Calm Calm - N/A   Scattered Clouds
1:53 PM 93.9 °F 102.1 °F 72.0 °F 49% 29.97 in 8.0 mi WNW 9.2 mph - N/A   Partly Cloudy
2:53 PM 93.0 °F 100.7 °F 72.0 °F 50% 29.94 in 8.0 mi NW 6.9 mph - N/A   Partly Cloudy
3:53 PM 93.0 °F 100.1 °F 71.1 °F 49% 29.93 in 7.0 mi NW 8.1 mph - N/A   Partly Cloudy
4:53 PM 93.0 °F 100.1 °F 71.1 °F 49% 29.91 in 7.0 mi WNW 8.1 mph - N/A   Partly Cloudy
5:53 PM 91.9 °F 98.4 °F 71.1 °F 50% 29.91 in 9.0 mi NNW 8.1 mph - N/A   Clear
6:53 PM 88.0 °F 95.6 °F 73.0 °F 61% 29.91 in 8.0 mi NW 3.5 mph - N/A   Clear
7:53 PM 82.9 °F 90.2 °F 75.0 °F 77% 29.94 in 7.0 mi Calm Calm - N/A   Clear
8:53 PM 82.0 °F 88.6 °F 75.0 °F 79% 29.93 in 7.0 mi Calm Calm - N/A   Clear
9:53 PM 80.1 °F 85.1 °F 75.0 °F 85% 29.94 in 6.0 mi Calm Calm - N/A   Haze
10:53 PM 80.1 °F 85.1 °F 75.0 °F 85% 29.93 in 6.0 mi Calm Calm - N/A   Haze
11:53 PM 78.1 °F - 75.0 °F 90% 29.91 in 5.0 mi Calm Calm - N/A   Clear